This is the latest recevied weather packets stored in our database for station/object W7MB. If no packets are shown the sender has not sent any weather packets the latest 10 day(s).
| Time | Temp. | Humidity | Pressure | Rain* | Wind** | Luminosity | Snow |
|---|---|---|---|---|---|---|---|
| 1777766763 | 29.44° C | 26% | 1013.4 hPa | 0 mm | - | - | - |
| 1777766404 | 29.44° C | 27% | 1013.3 hPa | 0 mm | - | - | - |
| 1777766043 | 28.89° C | 29% | 1013.3 hPa | 0 mm | - | - | - |
| 1777765683 | 28.89° C | 26% | 1013.3 hPa | 0 mm | - | - | - |
| 1777765323 | 30° C | 24% | 1013.4 hPa | 0 mm | - | - | - |
| 1777764963 | 30° C | 25% | 1013.6 hPa | 0 mm | - | - | - |
| 1777764603 | 30° C | 26% | 1013.5 hPa | 0 mm | - | - | - |
| 1777764243 | 30° C | 28% | 1013.6 hPa | 0 mm | - | - | - |
| 1777763883 | 29.44° C | 29% | 1013.6 hPa | 0 mm | - | - | - |
| 1777763523 | 28.89° C | 26% | 1013.7 hPa | 0 mm | - | - | - |
| 1777763163 | 29.44° C | 26% | 1013.7 hPa | 0 mm | - | - | - |
| 1777762804 | 28.89° C | 33% | 1013.8 hPa | 0 mm | - | - | - |
| 1777762443 | 28.89° C | 28% | 1013.9 hPa | 0 mm | - | - | - |
| 1777762083 | 30° C | 24% | 1014 hPa | 0 mm | - | - | - |
| 1777761723 | 29.44° C | 31% | 1014 hPa | 0 mm | - | - | - |
| 1777761363 | 29.44° C | 32% | 1014 hPa | 0 mm | - | - | - |
| 1777761003 | 29.44° C | 31% | 1014 hPa | 0 mm | - | - | - |
| 1777760643 | 29.44° C | 30% | 1014 hPa | 0 mm | - | - | - |
| 1777760283 | 28.89° C | 32% | 1014 hPa | 0 mm | - | - | - |
| 1777759923 | 28.33° C | 29% | 1014 hPa | 0 mm | - | - | - |
| 1777759563 | 28.33° C | 32% | 1014.2 hPa | 0 mm | - | - | - |
| 1777759204 | 28.33° C | 29% | 1014.2 hPa | 0 mm | - | - | - |
| 1777758843 | 28.33° C | 29% | 1014.2 hPa | 0 mm | - | - | - |
| 1777758483 | 28.33° C | 32% | 1014.4 hPa | 0 mm | - | - | - |
| 1777758123 | 28.33° C | 33% | 1014.3 hPa | 0 mm | - | - | - |
* Rain latest hour (hover to see other rain measurements)
** Current wind speed in m/s (hover to see current wind gust speed)